KC5EZZ-2 Weather Reports


time (UTC)temp
F
wind
direction
speed
knots
gust
knots
rain 1hr
in
rain 24hr
in
rain mn
in
humidity
%
barometer
mb
20260831210046 100 91 8.7 7.8 0.00 0.00 0.00
20260831205546 101 141 7.0 5.2 0.00 0.00 0.00
20260831205046 100 84 7.8 6.1 0.00 0.00 0.00
20260831204543 99 79 7.8 8.7 0.00 0.00 0.00
20260831204043 99 79 10.4 10.4 0.00 0.00 0.00
20260831203543 98 77 7.0 9.6 0.00 0.00 0.00
20260831203040 99 101 8.7 7.8 0.00 0.00 0.00
20260831202541 98 69 8.7 7.0 0.00 0.00 0.00
20260831202041 99 48 8.7 8.7 0.00 0.00 0.00
20260831201538 100 203 0.9 0.0 0.00 0.00 0.00
20260831201038 101 153 7.8 3.5 0.00 0.00 0.00
20260831200538 99 104 8.7 7.0 0.00 0.00 0.00
20260831200036 99 127 6.1 7.0 0.00 0.00 0.00
20260831195536 99 139 7.8 8.7 0.00 0.00 0.00
20260831195036 100 89 11.3 7.8 0.00 0.00 0.00
20260831194533 101 158 6.1 10.4 0.00 0.00 0.00
20260831194033 100 113 7.0 8.7 0.00 0.00 0.00
20260831193533 100 173 6.1 2.6 0.00 0.00 0.00
20260831193031 100 163 9.6 9.6 0.00 0.00 0.00
20260831192531 96 75 6.1 6.1 0.00 0.00 0.00
20260831192031 98 86 7.8 7.8 0.00 0.00 0.00
20260831191528 97 56 10.4 7.8 0.00 0.00 0.00
20260831191029 97 76 7.8 9.6 0.00 0.00 0.00
20260831190529 98 70 9.6 10.4 0.00 0.00 0.00
20260831190026 97 134 7.0 6.1 0.00 0.00 0.00
20260831185526 97 66 7.8 6.1 0.00 0.00 0.00
20260831185026 100 98 9.6 9.6 0.00 0.00 0.00
20260831184524 99 110 7.0 7.0 0.00 0.00 0.00
20260831184024 99 115 13.9 7.8 0.00 0.00 0.00
20260831183524 98 231 3.5 0.9 0.00 0.00 0.00
20260831183021 97 174 5.2 5.2 0.00 0.00 0.00
20260831182521 96 75 10.4 8.7 0.00 0.00 0.00
20260831182022 96 208 7.8 7.0 0.00 0.00 0.00
20260831181519 98 170 7.0 10.4 0.00 0.00 0.00
20260831181019 99 125 8.7 7.8 0.00 0.00 0.00
20260831180519 97 110 5.2 10.4 0.00 0.00 0.00
20260831180015 98 160 7.8 6.1 0.00 0.00 0.00
20260831175516 98 141 7.0 5.2 0.00 0.00 0.00
20260831175016 99 187 8.7 12.2 0.00 0.00 0.00